PY2FGD-13 Weather Reports


time (UTC)temp
F
wind
direction
speed
knots
gust
knots
rain 1hr
in
rain 24hr
in
rain mn
in
humidity
%
barometer
mb
20260509200756 74 0.0 0.0 0.00 0.00 0.00 76 1014.4
20260509195756 73 0.0 0.0 0.00 0.00 0.00 75 1014.5
20260509194814 73 0.0 0.0 0.00 0.00 0.00 73 1013.6
20260509193756 72 0.0 0.0 0.00 0.00 0.00 76 1014.1
20260509192755 71 0.0 0.0 0.00 0.00 0.00 75 1014.0
20260509191755 72 0.0 0.0 0.00 0.00 0.00 75 1013.7
20260509190756 72 0.0 0.0 0.00 0.00 0.00 76 1013.8
20260509185755 72 0.0 0.0 0.00 0.00 0.00 78 1014.1
20260509184811 73 0.0 0.0 0.00 0.00 0.00 77 1013.9
20260509183811 73 0.0 0.0 0.00 0.00 0.00 79 1013.7
20260509182756 74 0.0 0.0 0.00 0.00 0.00 77 1013.5
20260509181756 74 0.0 0.0 0.00 0.00 0.00 77 1013.2
20260509180756 74 0.0 0.0 0.00 0.00 0.00 77 1013.2
20260509175756 74 0.0 0.0 0.00 0.00 0.00 77 1013.0
20260509174757 75 0.0 0.0 0.00 0.00 0.00 77 1013.0
20260509173756 75 0.0 0.0 0.00 0.00 0.00 76 1013.2
20260509172756 75 0.0 0.0 0.00 0.00 0.00 75 1013.1
20260509171756 75 0.0 0.0 0.00 0.00 0.00 75 1013.0
20260509170811 75 0.0 0.0 0.00 0.00 0.00 75 1013.0
20260509165756 75 0.0 0.0 0.00 0.00 0.00 75 1013.2
20260509164831 75 0.0 0.0 0.00 0.00 0.00 76 1013.5
20260509163811 75 0.0 0.0 0.00 0.00 0.00 76 1013.4
20260509162756 75 0.0 0.0 0.00 0.00 0.00 78 1013.7
20260509161756 75 0.0 0.0 0.00 0.00 0.00 77 1013.8
20260509160756 74 0.0 0.0 0.00 0.00 0.00 77 1013.9
20260509155755 75 0.0 0.0 0.00 0.00 0.00 75 1013.9
20260509154755 74 0.0 0.0 0.00 0.00 0.00 72 1014.1
20260509153811 74 0.0 0.0 0.00 0.00 0.00 73 1014.4
20260509152755 74 0.0 0.0 0.00 0.00 0.00 71 1014.7
20260509151755 74 0.0 0.0 0.00 0.00 0.00 73 1014.7
20260509150755 74 0.0 0.0 0.00 0.00 0.00 75 1015.0
20260509145756 74 0.0 0.0 0.00 0.00 0.00 75 1015.3
20260509144755 74 0.0 0.0 0.00 0.00 0.00 76 1015.4
20260509143755 74 0.0 0.0 0.00 0.00 0.00 75 1015.6
20260509142756 74 0.0 0.0 0.00 0.00 0.00 76 1015.6
20260509141756 74 0.0 0.0 0.00 0.00 0.00 76 1015.6
20260509140756 74 0.0 0.0 0.00 0.00 0.00 76 1015.7
20260509135756 73 0.0 0.0 0.00 0.00 0.00 76 1015.7
20260509134755 73 0.0 0.0 0.00 0.00 0.00 77 1015.9
20260509133755 73 0.0 0.0 0.00 0.00 0.00 77 1015.9
20260509132756 72 0.0 0.0 0.00 0.00 0.00 78 1016.0
20260509131812 72 0.0 0.0 0.00 0.00 0.00 78 1016.0
20260509130755 72 0.0 0.0 0.00 0.00 0.00 79 1016.0
20260509125756 72 0.0 0.0 0.00 0.00 0.00 79 1015.9
20260509124755 72 0.0 0.0 0.00 0.00 0.00 80 1016.0
20260509123755 72 0.0 0.0 0.00 0.00 0.00 80 1015.9
20260509122756 74 0.0 0.0 0.00 0.00 0.00 74 1015.4
20260509121755 74 0.0 0.0 0.00 0.00 0.00 75 1015.1
20260509120755 74 0.0 0.0 0.00 0.00 0.00 75 1015.0
20260509115755 74 0.0 0.0 0.00 0.00 0.00 75 1014.7
20260509114757 74 0.0 0.0 0.00 0.00 0.00 75 1014.6
20260509113756 74 0.0 0.0 0.00 0.00 0.00 75 1014.4
20260509112755 74 0.0 0.0 0.00 0.00 0.00 76 1014.2
20260509111755 74 0.0 0.0 0.00 0.00 0.00 76 1014.1
20260509110811 71 0.0 0.0 0.00 0.00 0.00 84 1014.5
20260509105755 70 0.0 0.0 0.00 0.00 0.00 86 1014.3
20260509104755 71 0.0 0.0 0.00 0.00 0.00 85 1014.2
20260509103755 75 0.0 0.0 0.00 0.00 0.00 78 1013.6
20260509102755 75 0.0 0.0 0.00 0.00 0.00 78 1013.5
20260509101755 75 0.0 0.0 0.00 0.00 0.00 77 1013.4
20260509100755 75 0.0 0.0 0.00 0.00 0.00 77 1013.1
20260509095755 75 0.0 0.0 0.00 0.00 0.00 77 1012.8
20260509094755 75 0.0 0.0 0.00 0.00 0.00 78 1012.5
20260509093755 75 0.0 0.0 0.00 0.00 0.00 77 1012.5
20260509092756 75 0.0 0.0 0.00 0.00 0.00 77 1012.2
20260509091811 75 0.0 0.0 0.00 0.00 0.00 77 1012.2
20260509090755 75 0.0 0.0 0.00 0.00 0.00 78 1012.0
20260509085755 75 0.0 0.0 0.00 0.00 0.00 77 1011.5
20260509084755 75 0.0 0.0 0.00 0.00 0.00 78 1011.2
20260509083755 75 0.0 0.0 0.00 0.00 0.00 77 1011.2
20260509082757 75 0.0 0.0 0.00 0.00 0.00 77 1011.2
20260509081755 75 0.0 0.0 0.00 0.00 0.00 78 1011.1
20260509080755 75 0.0 0.0 0.00 0.00 0.00 77 1010.5
20260509075757 75 0.0 0.0 0.00 0.00 0.00 78 1010.8
20260509074754 75 0.0 0.0 0.00 0.00 0.00 79 1010.7
20260509073754 75 0.0 0.0 0.00 0.00 0.00 79 1010.8
20260509072754 75 0.0 0.0 0.00 0.00 0.00 80 1010.9
20260509071755 75 0.0 0.0 0.00 0.00 0.00 80 1011.1
20260509070755 75 0.0 0.0 0.00 0.00 0.00 81 1011.1
20260509065755 75 0.0 0.0 0.00 0.00 0.00 81 1011.3
20260509064754 75 0.0 0.0 0.00 0.00 0.00 82 1011.4
20260509063755 75 0.0 0.0 0.00 0.00 0.00 82 1011.7
20260509062755 75 0.0 0.0 0.00 0.00 0.00 83 1011.6
20260509061755 75 0.0 0.0 0.00 0.00 0.00 83 1011.7
20260509060755 75 0.0 0.0 0.00 0.00 0.00 82 1011.5
20260509055755 75 0.0 0.0 0.00 0.00 0.00 83 1011.4
20260509054756 75 0.0 0.0 0.00 0.00 0.00 83 1011.4
20260509053810 75 0.0 0.0 0.00 0.00 0.00 84 1011.5
20260509052755 75 0.0 0.0 0.00 0.00 0.00 84 1011.5
20260509051755 75 0.0 0.0 0.00 0.00 0.00 84 1011.5
20260509050754 75 0.0 0.0 0.00 0.00 0.00 84 1011.5
20260509045756 75 0.0 0.0 0.00 0.00 0.00 85 1011.5
20260509044755 76 0.0 0.0 0.00 0.00 0.00 85 1011.6
20260509043754 76 0.0 0.0 0.00 0.00 0.00 85 1011.5
20260509042754 76 0.0 0.0 0.00 0.00 0.00 84 1011.5
20260509041754 76 0.0 0.0 0.00 0.00 0.00 85 1011.4
20260509040810 76 0.0 0.0 0.00 0.00 0.00 85 1011.2
20260509035755 76 0.0 0.0 0.00 0.00 0.00 85 1011.4
20260509034754 76 0.0 0.0 0.00 0.00 0.00 85 1011.5
20260509033810 76 0.0 0.0 0.00 0.00 0.00 84 1010.9
20260509032754 76 0.0 0.0 0.00 0.00 0.00 82 1010.9
20260509031755 76 0.0 0.0 0.00 0.00 0.00 75 1010.9
20260509030754 75 0.0 0.0 0.00 0.00 0.00 74 1010.9
20260509025754 75 0.0 0.0 0.00 0.00 0.00 74 1010.9
20260509024755 75 0.0 0.0 0.00 0.00 0.00 74 1011.0
20260509023754 76 0.0 0.0 0.00 0.00 0.00 73 1011.0
20260509022754 75 0.0 0.0 0.00 0.00 0.00 73 1011.1
20260509021755 75 0.0 0.0 0.00 0.00 0.00 74 1011.2
20260509020754 75 0.0 0.0 0.00 0.00 0.00 73 1011.2
20260509015754 75 0.0 0.0 0.00 0.00 0.00 73 1011.5
20260509014754 75 0.0 0.0 0.00 0.00 0.00 72 1011.3
20260509013754 73 0.0 0.0 0.00 0.00 0.00 76 1011.9
20260509012815 72 0.0 0.0 0.00 0.00 0.00 78 1012.0
20260509011754 72 0.0 0.0 0.00 0.00 0.00 76 1011.8
20260509010754 73 0.0 0.0 0.00 0.00 0.00 75 1012.0
20260509005754 73 0.0 0.0 0.00 0.00 0.00 75 1011.7
20260509004754 73 0.0 0.0 0.00 0.00 0.00 75 1011.7
20260509003812 73 0.0 0.0 0.00 0.00 0.00 74 1011.5
20260509002811 73 0.0 0.0 0.00 0.00 0.00 74 1011.6
20260509001754 73 0.0 0.0 0.00 0.00 0.00 74 1011.6
20260509000755 73 0.0 0.0 0.00 0.00 0.00 73 1011.4
20260508235810 73 0.0 0.0 0.00 0.00 0.00 73 1011.3
20260508234754 73 0.0 0.0 0.00 0.00 0.00 72 1011.2
20260508233755 74 0.0 0.0 0.00 0.00 0.00 71 1011.1
20260508232754 74 0.0 0.0 0.00 0.00 0.00 70 1011.0
20260508231754 74 0.0 0.0 0.00 0.00 0.00 69 1010.9
20260508230755 74 0.0 0.0 0.00 0.00 0.00 67 1011.0
20260508225754 75 0.0 0.0 0.00 0.00 0.00 66 1010.7
20260508224809 75 0.0 0.0 0.00 0.00 0.00 67 1010.6
20260508223810 75 0.0 0.0 0.00 0.00 0.00 66 1010.6
20260508222754 75 0.0 0.0 0.00 0.00 0.00 67 1010.5
20260508221754 75 0.0 0.0 0.00 0.00 0.00 68 1010.5
20260508220801 75 0.0 0.0 0.00 0.00 0.00 68 1010.5
20260508215754 75 0.0 0.0 0.00 0.00 0.00 67 1010.4
20260508214754 75 0.0 0.0 0.00 0.00 0.00 67 1010.2
20260508213754 76 0.0 0.0 0.00 0.00 0.00 66 1010.0
20260508212754 76 0.0 0.0 0.00 0.00 0.00 64 1009.9
20260508211754 76 0.0 0.0 0.00 0.00 0.00 65 1009.9
20260508210754 76 0.0 0.0 0.00 0.00 0.00 65 1010.0
20260508205754 76 0.0 0.0 0.00 0.00 0.00 64 1010.0
20260508204756 76 0.0 0.0 0.00 0.00 0.00 64 1010.1
20260508203754 76 0.0 0.0 0.00 0.00 0.00 64 1010.0
20260508202754 76 0.0 0.0 0.00 0.00 0.00 63 1010.0
20260508201753 76 0.0 0.0 0.00 0.00 0.00 63 1009.9